Regional Weather Roundup
Issued by NWS

Home | Current Version | Previous Version | Graphics & Text | Print | Product List | Glossary On
Versions: 1 2 3 4 5 6 7 8 9 10 11 12 13 14 15 16 17 18 19 20 21 22 23 24 25 26 27 28 29 30 31 32 33 34 35 36 37 38 39 40 41 42 43 44 45 46 47 48 49 50
068
ASUS43 KOAX 280810
RWRNE

WEATHER ROUNDUP FOR NEBRASKA
NATIONAL WEATHER SERVICE OMAHA NE
300 AM CDT SAT MAY 28 2016

NOTES: SATELLITE DATA IS BEING USED TO AUGMENT CLOUD COVER ABOVE
       12000 FEET.
       "FAIR" INDICATES FEW OR NO CLOUDS BELOW 12,000 FEET WITH NO
       SIGNIFICANT WEATHER AND/OR OBSTRUCTIONS TO VISIBILITY.

  * THESE STATIONS DO NOT REPORT WEATHER SUCH AS RAIN...SNOW OR FOG.

NEZ001>004-019>022-054>056-280900-
NEBRASKA PANHANDLE

CITY           SKY/WX    TMP DP  RH WIND       PRES   REMARKS
SCOTTSBLUFF    CLEAR     44  41  89 CALM      29.90F
ALLIANCE       CLOUDY    43  42  97 W6        29.88F
CHADRON        PTCLDY    44  42  93 W6        29.87F
KIMBALL        CLEAR     38  37  97 CALM      29.94S
SIDNEY         CLEAR     42  41  96 NW8       29.91F
$$

NEZ057>060-069>072-079>082-280900-
SOUTHWEST NEBRASKA

CITY           SKY/WX    TMP DP  RH WIND       PRES   REMARKS
NORTH PLATTE   MOCLDY    54  52  93 NE5       29.83S
IMPERIAL       CLEAR     50  47  89 NW12      29.86R
LEXINGTON      LGT RAIN  55  53  93 CALM      29.80R
MCCOOK         LGT RAIN  55  53  93 N6        29.82  FOG
OGALLALA       CLOUDY    50  47  88 NW8       29.87R
$$

NEZ005>010-023>029-035>040-094-280900-
NORTH CENTRAL NEBRASKA

CITY           SKY/WX    TMP DP  RH WIND       PRES   REMARKS
VALENTINE      MOCLDY    53  50  89 W10       29.82S
AINSWORTH      MOCLDY    55  53  91 N5        29.81S
BROKEN BOW     LGT RAIN  56  54  93 SW5       29.80S
O`NEILL        RAIN      58  56  95 W5        29.78R
ORD            LGT RAIN  57  55  93 SW10      29.77S
THEDFORD       MOCLDY    54  51  90 NW5       29.83S
$$

NEZ041-046>049-061>064-073>077-083>087-280900-
SOUTH CENTRAL NEBRASKA

CITY           SKY/WX    TMP DP  RH WIND       PRES   REMARKS
GRAND ISLAND   LGT RAIN  57  55  93 SW9       29.78S
AURORA         CLOUDY    57  56  95 W10       29.77R
HASTINGS       CLOUDY    57  52  83 W7        29.77F
HEBRON         RAIN      58  56  94 N6        29.75S
HOLDREGE       LGT RAIN  56  54  94 CALM      29.79F
KEARNEY *      CLOUDY    57  54  88 NW5       29.79F
YORK           MOCLDY    57  55  94 W12       29.75R
$$

NEZ011>018-030>034-042>045-280900-
NORTHEAST NEBRASKA

CITY           SKY/WX    TMP DP  RH WIND       PRES   REMARKS
NORFOLK        CLOUDY    59  56  89 NW10      29.69R
ALBION         LGT RAIN  57  55  92 NW7       29.74S
BLAIR          CLOUDY    60  59  96 E9        29.69F
FREMONT        CLOUDY    60  59  98 SW3       29.70R
TEKAMAH        PTCLDY    61  58  90 SE9       29.68F
WAYNE          CLOUDY    61  59  94 NE3       29.68S
$$

NEZ050>053-065>068-078-088>093-280900-
SOUTHEAST NEBRASKA

CITY           SKY/WX    TMP DP  RH WIND       PRES   REMARKS
LINCOLN        CLOUDY    59  57  93 SW3       29.73R
OMAHA EPPLEY   CLOUDY    62  59  90 SE8       29.69F
BEATRICE       CLOUDY    58  56  96 SW6       29.73S
FALLS CITY     PTCLDY    60  59  96 S6        29.72R
NEBRASKA CITY  MOCLDY    60  60 100 CALM      29.71F
PLATTSMOUTH    CLOUDY    62  62  98 S5        29.71S
$$

NEZ044-045-051>053-067-280900-
OMAHA AREA

CITY           SKY/WX    TMP DP  RH WIND       PRES   REMARKS
OMAHA EPPLEY   CLOUDY    62  59  90 SE8       29.69F
BLAIR          CLOUDY    60  59  96 E9        29.69F
FREMONT        CLOUDY    60  59  98 SW3       29.70R
MILLARD        CLOUDY    62  60  93 E5        29.69F
OFFUTT AFB     LGT RAIN  61  61 100 E8        29.68F
PLATTSMOUTH    CLOUDY    62  62  98 S5        29.71S
WAHOO          CLOUDY    59  57  94 SW6       29.71R
$$




USA.gov is the U.S. government's official web portal to all federal, state and local government web resources and services.